Location: Brompton
(51.4000°N, 0.5333°E)
Time: 09:03:17
(UTC+00:00)

USA 305 - Pass Details

Date: 11 May 2021
Orbit: 567 x 573 km, 54.0° (Epoch: 07 May)

Event Time Altitude Azimuth Distance (km) Brightness Sun altitude
Rises 22:00:10 0° 291° (WNW) 2,775 7.2 -16.1°
Reaches altitude 10° 22:02:36 10° 281° (W) 1,876 6.1 -16.3°
Maximum altitude 22:06:22 31° 220° (SW) 1,022 3.9 -16.6°
Enters shadow 22:07:27 27° 191° (S) 1,119 3.9 -16.7°
